sat.trackr.live / text

‹ back to catalog

STARLINK-30536

NORAD 57993 · 2023-153C

PAYLOAD ACTIVE UNKNOWN

§ Identity

Operator
Country
US
Launch date
2023-10-05
Launch site
AFETR
Launch vehicle
Mass (kg)
RCS (m²)

Purposes: comms

External: N2YO · Heavens-Above · Gunter

§ Orbital elements

Epoch: 2026-09-20T03:04:57.871776Z

Period
94.27 min
Inclination
43.0060°
Eccentricity
0.0001754
Mean motion
15.27576622 rev/d
Perigee alt
481.9 km
Apogee alt
484.3 km
Semi-major
6,861.2 km
B*
6.9334e-6
RAAN
48.9402°
Arg perigee
275.8432°
Mean anomaly
84.2220°
Rev number
16,463

§ Raw data

STARLINK-305361 57993U 23153C   26263.12844759 -.00000072  00000+0  69334-5 0  99952 57993  43.0060  48.9402 0001754 275.8432  84.2220 15.27576622164634

JSON: /api/v1/satellites/57993 · /tle

For live sub-satellite position, see the globe view (requires WebGL).

§ Visibility from observer

Set your observer location to see the next 7 days of passes ≥ 10°. The values pass through the URL so the page stays shareable.

No JS? Fill the form by hand. The geolocation button needs JavaScript.